Time,TemperatureF,DewpointF,PressureIn,WindDirection,WindDirectionDegrees,WindSpeedMPH,WindSpeedGustMPH,Humidity,HourlyPrecipIn,Conditions,Clouds,dailyrainin,SoftwareType,DateUTC
2013-07-26 00:00:00,62.8,58.9,26.95,SSE,150,0.0,0.0,87,0.00,RA,,0.00,WeatherDisplay:10.37,2013-07-26 04:00:00,
2013-07-26 00:01:00,62.8,58.9,26.95,SSE,150,0.0,0.0,87,0.00,RA,,0.00,WeatherDisplay:10.37,2013-07-26 04:01:00,
2013-07-26 00:02:00,62.8,58.9,26.95,SSE,150,0.0,0.0,87,0.00,RA,,0.00,WeatherDisplay:10.37,2013-07-26 04:02:00,
2013-07-26 00:06:00,63.0,59.3,26.95,SSE,150,0.0,0.0,88,0.00,RA,,0.00,WeatherDisplay:10.37,2013-07-26 04:06:00,
2013-07-26 00:11:00,63.0,59.7,26.95,SSE,150,0.0,0.0,89,0.00,CLR,,0.00,WeatherDisplay:10.37,2013-07-26 04:11:00,
2013-07-26 00:16:00,63.0,59.7,26.95,SSE,150,0.0,0.0,89,0.00,CLR,,0.00,WeatherDisplay:10.37,2013-07-26 04:16:00,
2013-07-26 00:22:00,63.0,60.0,26.95,SSE,150,0.0,0.0,90,0.00,CLR,,0.00,WeatherDisplay:10.37,2013-07-26 04:22:00,
2013-07-26 00:27:00,63.0,60.0,26.95,SSE,150,0.0,0.0,90,0.00,CLR,,0.00,WeatherDisplay:10.37,2013-07-26 04:27:00,
2013-07-26 00:32:00,63.0,60.0,26.95,SSE,150,0.0,0.0,90,0.00,CLR,,0.00,WeatherDisplay:10.37,2013-07-26 04:32:00,
2013-07-26 00:37:00,63.1,60.2,26.95,SSE,150,0.0,0.0,90,0.00,CLR,,0.00,WeatherDisplay:10.37,2013-07-26 04:37:00,
2013-07-26 00:42:00,63.1,60.5,26.95,WNW,294,0.0,0.0,91,0.00,CLR,,0.00,WeatherDisplay:10.37,2013-07-26 04:42:00,
2013-07-26 00:47:00,63.1,60.5,26.95,WNW,294,0.0,0.0,91,0.00,CLR,,0.00,WeatherDisplay:10.37,2013-07-26 04:47:00,
2013-07-26 00:52:00,63.3,60.6,26.95,WNW,293,0.0,0.0,91,0.00,CLR,,0.00,WeatherDisplay:10.37,2013-07-26 04:52:00,
2013-07-26 00:57:00,63.3,61.0,26.95,WNW,294,2.3,0.0,92,0.00,CLR,,0.00,WeatherDisplay:10.37,2013-07-26 04:57:00,
2013-07-26 01:02:00,63.3,61.0,26.95,WNW,293,2.3,0.0,92,0.00,CLR,,0.00,WeatherDisplay:10.37,2013-07-26 05:02:00,
2013-07-26 01:07:00,63.3,61.0,26.95,WNW,294,0.0,0.0,92,0.00,CLR,,0.00,WeatherDisplay:10.37,2013-07-26 05:07:00,
2013-07-26 01:12:00,63.5,61.1,26.95,WNW,294,0.0,0.0,92,0.00,CLR,,0.00,WeatherDisplay:10.37,2013-07-26 05:12:00,
2013-07-26 01:17:00,63.5,61.1,26.95,WNW,294,2.3,0.0,92,0.00,CLR,,0.00,WeatherDisplay:10.37,2013-07-26 05:17:00,
2013-07-26 01:22:00,63.7,61.6,26.95,WNW,294,0.0,0.0,93,0.00,CLR,,0.00,WeatherDisplay:10.37,2013-07-26 05:22:00,
2013-07-26 01:27:00,63.7,61.6,26.95,WNW,294,0.0,0.0,93,0.00,CLR,,0.00,WeatherDisplay:10.37,2013-07-26 05:27:00,
2013-07-26 01:32:00,63.9,61.8,26.95,WNW,294,0.0,0.0,93,0.00,CLR,,0.00,WeatherDisplay:10.37,2013-07-26 05:32:00,
2013-07-26 01:37:00,63.9,61.8,26.95,WNW,293,0.0,0.0,93,0.00,CLR,,0.00,WeatherDisplay:10.37,2013-07-26 05:37:00,
2013-07-26 01:42:00,63.9,62.1,26.95,WNW,293,0.0,0.0,94,0.00,CLR,,0.00,WeatherDisplay:10.37,2013-07-26 05:42:00,
2013-07-26 01:47:00,64.0,62.3,26.95,WNW,293,0.0,0.0,94,0.00,CLR,,0.00,WeatherDisplay:10.37,2013-07-26 05:47:00,
2013-07-26 01:52:00,64.2,62.5,26.95,WNW,294,0.0,0.0,94,0.00,CLR,,0.00,WeatherDisplay:10.37,2013-07-26 05:52:00,
2013-07-26 01:57:00,64.2,62.5,26.95,WNW,293,3.5,0.0,94,0.00,CLR,,0.00,WeatherDisplay:10.37,2013-07-26 05:57:00,
2013-07-26 02:02:00,64.2,62.5,26.95,WNW,294,0.0,0.0,94,0.00,CLR,,0.00,WeatherDisplay:10.37,2013-07-26 06:02:00,
2013-07-26 02:07:00,64.4,62.6,26.95,WNW,293,0.0,0.0,94,0.00,CLR,,0.00,WeatherDisplay:10.37,2013-07-26 06:07:00,
2013-07-26 02:12:00,64.4,62.6,26.95,WNW,293,0.0,0.0,94,0.00,CLR,,0.00,WeatherDisplay:10.37,2013-07-26 06:12:00,
2013-07-26 02:17:00,64.4,62.6,26.95,WNW,294,0.0,0.0,94,0.00,CLR,,0.00,WeatherDisplay:10.37,2013-07-26 06:17:00,
2013-07-26 02:22:00,64.4,62.6,26.95,WNW,294,0.0,0.0,94,0.00,CLR,,0.00,WeatherDisplay:10.37,2013-07-26 06:22:00,
2013-07-26 02:27:00,64.4,62.6,26.95,WNW,294,0.0,0.0,94,0.00,CLR,,0.00,WeatherDisplay:10.37,2013-07-26 06:27:00,
2013-07-26 02:32:00,64.6,62.5,26.95,WNW,294,0.0,0.0,93,0.04,RA,,0.04,WeatherDisplay:10.37,2013-07-26 06:32:00,
2013-07-26 02:37:00,64.6,62.5,26.95,SW,236,0.0,0.0,93,0.04,RA,,0.04,WeatherDisplay:10.37,2013-07-26 06:37:00,
2013-07-26 02:42:00,64.6,62.2,26.95,SW,236,3.5,0.0,92,0.04,,,0.04,WeatherDisplay:10.37,2013-07-26 06:42:00,
2013-07-26 02:47:00,64.8,62.4,26.95,SW,236,0.0,0.0,92,0.04,CLR,,0.04,WeatherDisplay:10.37,2013-07-26 06:47:00,
2013-07-26 02:52:00,64.8,62.4,26.95,SW,236,0.0,0.0,92,0.04,CLR,,0.04,WeatherDisplay:10.37,2013-07-26 06:52:00,
2013-07-26 02:57:00,64.8,62.4,26.95,SW,236,0.0,0.0,92,0.04,CLR,,0.04,WeatherDisplay:10.37,2013-07-26 06:57:00,
2013-07-26 03:02:00,64.8,62.4,26.95,SW,236,0.0,0.0,92,0.04,CLR,,0.04,WeatherDisplay:10.37,2013-07-26 07:02:00,
2013-07-26 03:07:00,64.8,62.4,26.95,SW,236,0.0,0.0,92,0.04,CLR,,0.04,WeatherDisplay:10.37,2013-07-26 07:07:00,
2013-07-26 03:12:00,64.8,62.4,26.95,SW,236,0.0,0.0,92,0.04,CLR,,0.04,WeatherDisplay:10.37,2013-07-26 07:12:00,
2013-07-26 03:17:00,64.8,62.4,26.95,WNW,298,0.0,0.0,92,0.04,CLR,,0.04,WeatherDisplay:10.37,2013-07-26 07:17:00,
2013-07-26 03:22:00,64.8,62.4,26.95,WNW,298,0.0,0.0,92,0.04,CLR,,0.04,WeatherDisplay:10.37,2013-07-26 07:22:00,
2013-07-26 03:27:00,64.8,62.4,26.95,WNW,297,0.0,0.0,92,0.04,CLR,,0.04,WeatherDisplay:10.37,2013-07-26 07:27:00,
2013-07-26 03:32:00,64.8,62.4,26.95,WNW,298,0.0,0.0,92,0.00,CLR,,0.04,WeatherDisplay:10.37,2013-07-26 07:32:00,
2013-07-26 03:37:00,64.8,62.4,26.95,WNW,298,0.0,0.0,92,0.04,RA,,0.08,WeatherDisplay:10.37,2013-07-26 07:37:00,
2013-07-26 03:42:00,64.9,62.6,26.95,WNW,298,0.0,0.0,92,0.04,RA,,0.08,WeatherDisplay:10.37,2013-07-26 07:42:00,
2013-07-26 03:47:00,64.9,62.6,26.95,WNW,298,0.0,0.0,92,0.04,,,0.08,WeatherDisplay:10.37,2013-07-26 07:47:00,
2013-07-26 03:52:00,64.9,62.6,26.95,WNW,297,0.0,0.0,92,0.04,CLR,,0.08,WeatherDisplay:10.37,2013-07-26 07:52:00,
2013-07-26 03:57:00,64.9,62.6,26.95,WNW,298,0.0,0.0,92,0.04,CLR,,0.08,WeatherDisplay:10.37,2013-07-26 07:57:00,
2013-07-26 04:02:00,64.9,62.6,26.95,WNW,298,0.0,0.0,92,0.04,CLR,,0.08,WeatherDisplay:10.37,2013-07-26 08:02:00,
2013-07-26 04:07:00,64.9,62.6,26.95,WNW,298,0.0,0.0,92,0.04,CLR,,0.08,WeatherDisplay:10.37,2013-07-26 08:07:00,
2013-07-26 04:12:00,64.9,62.6,26.95,WNW,298,0.0,0.0,92,0.04,CLR,,0.08,WeatherDisplay:10.37,2013-07-26 08:12:00,
2013-07-26 04:17:00,64.9,62.6,26.95,WNW,297,0.0,0.0,92,0.04,CLR,,0.08,WeatherDisplay:10.37,2013-07-26 08:17:00,
2013-07-26 04:22:00,64.9,62.6,26.95,WNW,298,0.0,0.0,92,0.04,CLR,,0.08,WeatherDisplay:10.37,2013-07-26 08:22:00,
2013-07-26 04:27:00,65.1,62.7,26.95,WNW,298,0.0,0.0,92,0.04,CLR,,0.08,WeatherDisplay:10.37,2013-07-26 08:27:00,
2013-07-26 04:32:00,65.1,62.7,26.95,WNW,297,0.0,0.0,92,0.04,CLR,,0.08,WeatherDisplay:10.37,2013-07-26 08:32:00,
2013-07-26 04:37:00,65.1,62.7,26.95,WNW,297,0.0,0.0,92,0.00,CLR,,0.08,WeatherDisplay:10.37,2013-07-26 08:37:00,
2013-07-26 04:42:00,65.1,62.7,26.95,WNW,297,0.0,0.0,92,0.00,CLR,,0.08,WeatherDisplay:10.37,2013-07-26 08:42:00,
2013-07-26 04:47:00,65.3,62.9,26.95,SSW,208,2.3,0.0,92,0.00,CLR,,0.08,WeatherDisplay:10.37,2013-07-26 08:47:00,
2013-07-26 04:52:00,65.3,62.9,26.95,SSW,208,0.0,0.0,92,0.00,CLR,,0.08,WeatherDisplay:10.37,2013-07-26 08:52:00,
2013-07-26 04:57:00,65.5,63.1,26.95,SSW,210,0.0,0.0,92,0.00,CLR,,0.08,WeatherDisplay:10.37,2013-07-26 08:57:00,
2013-07-26 05:02:00,65.5,63.1,26.95,SSW,210,0.0,0.0,92,0.00,CLR,,0.08,WeatherDisplay:10.37,2013-07-26 09:02:00,
2013-07-26 05:07:00,65.5,63.1,26.95,SSW,196,0.0,0.0,92,0.00,CLR,,0.08,WeatherDisplay:10.37,2013-07-26 09:07:00,
2013-07-26 05:12:00,65.5,63.1,26.95,SSW,196,0.0,0.0,92,0.00,CLR,,0.08,WeatherDisplay:10.37,2013-07-26 09:12:00,
2013-07-26 05:17:00,65.5,63.1,26.95,SSW,196,0.0,0.0,92,0.00,CLR,,0.08,WeatherDisplay:10.37,2013-07-26 09:17:00,
2013-07-26 05:22:00,65.5,63.1,26.95,SSW,196,0.0,0.0,92,0.00,CLR,,0.08,WeatherDisplay:10.37,2013-07-26 09:22:00,
2013-07-26 05:27:00,65.5,63.1,26.95,SSW,193,4.6,0.0,92,0.00,CLR,,0.08,WeatherDisplay:10.37,2013-07-26 09:27:00,
2013-07-26 05:32:00,65.5,63.1,26.95,WNW,298,3.5,0.0,92,0.00,CLR,,0.08,WeatherDisplay:10.37,2013-07-26 09:32:00,
2013-07-26 05:37:00,65.5,63.1,26.95,SSW,204,2.7,0.0,92,0.00,CLR,,0.08,WeatherDisplay:10.37,2013-07-26 09:37:00,
2013-07-26 05:42:00,65.5,63.1,26.95,SSW,204,0.0,0.0,92,0.00,CLR,,0.08,WeatherDisplay:10.37,2013-07-26 09:42:00,
2013-07-26 05:47:00,65.5,63.1,26.95,SW,229,0.0,0.0,92,0.00,CLR,,0.08,WeatherDisplay:10.37,2013-07-26 09:47:00,
2013-07-26 05:52:00,65.5,63.4,26.95,NW,318,0.0,0.0,93,0.00,CLR,,0.08,WeatherDisplay:10.37,2013-07-26 09:52:00,
2013-07-26 05:57:00,65.5,63.4,26.95,NW,318,0.0,0.0,93,0.00,CLR,,0.08,WeatherDisplay:10.37,2013-07-26 09:57:00,
2013-07-26 06:02:00,65.5,63.4,26.95,NW,318,0.0,0.0,93,0.00,CLR,,0.08,WeatherDisplay:10.37,2013-07-26 10:02:00,
2013-07-26 06:07:00,65.5,63.4,26.95,NW,318,3.5,0.0,93,0.04,RA,,0.12,WeatherDisplay:10.37,2013-07-26 10:07:00,
2013-07-26 06:12:00,65.5,63.4,26.95,NW,318,2.3,0.0,93,0.04,RA,,0.12,WeatherDisplay:10.37,2013-07-26 10:12:00,
2013-07-26 06:17:00,65.5,63.4,26.95,NW,318,0.0,0.0,93,0.04,,,0.12,WeatherDisplay:10.37,2013-07-26 10:17:00,
2013-07-26 06:22:00,65.5,63.1,26.95,NW,318,2.3,0.0,92,0.04,CLR,,0.12,WeatherDisplay:10.37,2013-07-26 10:22:00,
2013-07-26 06:27:00,65.5,63.1,26.95,SW,232,3.5,0.0,92,0.04,CLR,,0.12,WeatherDisplay:10.37,2013-07-26 10:27:00,
2013-07-26 06:32:00,65.5,63.1,26.95,SW,222,3.5,0.0,92,0.04,CLR,,0.12,WeatherDisplay:10.37,2013-07-26 10:32:00,
2013-07-26 06:37:00,65.5,63.1,26.95,WSW,240,0.0,0.0,92,0.04,CLR,,0.12,WeatherDisplay:10.37,2013-07-26 10:37:00,
2013-07-26 06:42:00,65.5,63.1,26.95,WSW,241,2.3,0.0,92,0.04,CLR,,0.12,WeatherDisplay:10.37,2013-07-26 10:42:00,
2013-07-26 06:47:00,65.5,63.1,26.95,WSW,241,0.0,0.0,92,0.04,CLR,,0.12,WeatherDisplay:10.37,2013-07-26 10:47:00,
2013-07-26 06:52:00,65.7,63.3,26.95,NW,323,0.0,0.0,92,0.04,CLR,,0.12,WeatherDisplay:10.37,2013-07-26 10:52:00,
2013-07-26 06:57:00,65.5,63.1,26.95,SW,234,3.5,0.0,92,0.04,CLR,,0.12,WeatherDisplay:10.37,2013-07-26 10:57:00,
2013-07-26 07:02:00,65.7,63.3,26.95,North,357,0.0,0.0,92,0.04,CLR,,0.12,WeatherDisplay:10.37,2013-07-26 11:02:00,
2013-07-26 07:07:00,65.7,63.3,26.95,North,1,2.3,0.0,92,0.00,CLR,,0.12,WeatherDisplay:10.37,2013-07-26 11:07:00,
2013-07-26 07:12:00,65.7,63.3,26.95,SW,222,3.5,0.0,92,0.00,CLR,,0.12,WeatherDisplay:10.37,2013-07-26 11:12:00,
2013-07-26 07:17:00,65.7,63.0,26.95,West,280,2.3,0.0,91,0.00,CLR,,0.12,WeatherDisplay:10.37,2013-07-26 11:17:00,
2013-07-26 07:22:00,65.7,63.0,26.95,West,273,2.3,2.3,91,0.00,CLR,,0.12,WeatherDisplay:10.37,2013-07-26 11:22:00,
2013-07-26 07:27:00,65.7,63.0,26.95,NE,54,2.2,0.0,91,0.00,CLR,,0.12,WeatherDisplay:10.37,2013-07-26 11:27:00,
2013-07-26 07:32:00,65.7,63.0,26.95,ESE,123,0.0,0.0,91,0.00,CLR,,0.12,WeatherDisplay:10.37,2013-07-26 11:32:00,
2013-07-26 07:37:00,65.8,62.8,26.95,West,265,0.0,0.0,90,0.00,CLR,,0.12,WeatherDisplay:10.37,2013-07-26 11:37:00,
2013-07-26 07:42:00,65.7,62.6,26.95,West,265,0.0,0.0,90,0.00,CLR,,0.12,WeatherDisplay:10.37,2013-07-26 11:42:00,
2013-07-26 07:47:00,65.8,62.8,26.95,North,10,0.0,0.0,90,0.00,CLR,,0.12,WeatherDisplay:10.37,2013-07-26 11:47:00,
2013-07-26 07:52:00,65.7,62.6,26.95,WSW,256,0.0,0.0,90,0.00,CLR,,0.12,WeatherDisplay:10.37,2013-07-26 11:52:00,
2013-07-26 07:57:00,65.7,62.3,26.95,SW,215,2.3,0.0,89,0.04,RA,,0.16,WeatherDisplay:10.37,2013-07-26 11:57:00,
2013-07-26 08:02:00,65.8,62.5,26.95,WSW,242,0.0,0.0,89,0.04,RA,,0.16,WeatherDisplay:10.37,2013-07-26 12:02:00,
2013-07-26 08:04:00,65.8,62.5,26.95,WSW,242,0.0,0.0,89,0.04,RA,,0.16,WeatherDisplay:10.37,2013-07-26 12:04:00,
2013-07-26 08:09:00,65.8,62.5,26.95,West,271,2.3,0.0,89,0.04,CLR,,0.16,WeatherDisplay:10.37,2013-07-26 12:09:00,
2013-07-26 08:14:00,65.8,62.5,26.95,West,271,0.0,0.0,89,0.04,CLR,,0.16,WeatherDisplay:10.37,2013-07-26 12:14:00,
2013-07-26 08:19:00,66.0,62.7,26.95,West,271,3.5,0.0,89,0.04,CLR,,0.16,WeatherDisplay:10.37,2013-07-26 12:19:00,
2013-07-26 08:24:00,66.0,62.7,26.95,West,271,0.0,0.0,89,0.04,CLR,,0.16,WeatherDisplay:10.37,2013-07-26 12:24:00,
2013-07-26 08:29:00,66.0,62.7,26.95,WNW,296,0.0,0.0,89,0.04,CLR,,0.16,WeatherDisplay:10.37,2013-07-26 12:29:00,
2013-07-26 08:34:00,66.0,62.4,26.95,SW,234,2.3,0.0,88,0.04,CLR,,0.16,WeatherDisplay:10.37,2013-07-26 12:34:00,
2013-07-26 08:39:00,66.0,62.4,26.95,WSW,241,2.3,0.0,88,0.04,CLR,,0.16,WeatherDisplay:10.37,2013-07-26 12:39:00,
2013-07-26 08:44:00,66.0,62.4,26.95,WSW,240,4.0,0.0,88,0.04,CLR,,0.16,WeatherDisplay:10.37,2013-07-26 12:44:00,
2013-07-26 08:49:00,65.8,61.9,26.95,West,259,2.3,0.0,87,0.04,CLR,,0.16,WeatherDisplay:10.37,2013-07-26 12:49:00,
2013-07-26 08:54:00,65.8,61.9,26.95,NW,308,2.3,0.0,87,0.04,CLR,,0.16,WeatherDisplay:10.37,2013-07-26 12:54:00,
2013-07-26 08:59:00,65.8,61.9,26.95,West,278,3.5,0.0,87,0.00,CLR,,0.16,WeatherDisplay:10.37,2013-07-26 12:59:00,
2013-07-26 09:04:00,65.7,61.4,26.95,West,281,2.3,0.0,86,0.00,CLR,,0.16,WeatherDisplay:10.37,2013-07-26 13:04:00,
2013-07-26 09:09:00,65.7,61.4,26.95,NNW,340,2.3,0.0,86,0.00,CLR,,0.16,WeatherDisplay:10.37,2013-07-26 13:09:00,
2013-07-26 09:14:00,65.8,61.5,26.95,WSW,237,2.7,0.0,86,0.00,CLR,,0.16,WeatherDisplay:10.37,2013-07-26 13:14:00,
2013-07-26 09:19:00,65.8,61.5,26.95,NNW,339,3.5,3.5,86,0.00,CLR,,0.16,WeatherDisplay:10.37,2013-07-26 13:19:00,
2013-07-26 09:24:00,65.7,60.4,26.95,SSW,213,0.0,0.0,83,0.00,CLR,,0.16,WeatherDisplay:10.37,2013-07-26 13:24:00,
2013-07-26 09:29:00,65.8,60.2,26.95,SSW,202,2.3,0.0,82,0.00,CLR,,0.16,WeatherDisplay:10.37,2013-07-26 13:29:00,
2013-07-26 09:34:00,65.8,60.5,26.95,WSW,247,0.0,0.0,83,0.00,CLR,,0.16,WeatherDisplay:10.37,2013-07-26 13:34:00,
2013-07-26 09:39:00,65.5,59.1,26.95,West,278,2.3,0.0,80,0.00,CLR,,0.16,WeatherDisplay:10.37,2013-07-26 13:39:00,
2013-07-26 09:44:00,65.5,58.1,26.95,SSE,152,0.0,0.0,77,0.00,CLR,,0.16,WeatherDisplay:10.37,2013-07-26 13:44:00,
2013-07-26 09:49:00,65.5,57.3,26.95,ENE,61,0.0,0.0,75,0.00,CLR,,0.16,WeatherDisplay:10.37,2013-07-26 13:49:00,
2013-07-26 09:54:00,65.5,55.0,26.95,SW,230,0.0,0.0,69,0.00,CLR,,0.16,WeatherDisplay:10.37,2013-07-26 13:54:00,
2013-07-26 09:59:00,65.7,55.2,26.95,WSW,240,0.0,0.0,69,0.00,CLR,,0.16,WeatherDisplay:10.37,2013-07-26 13:59:00,
2013-07-26 10:04:00,65.7,54.8,26.95,SSE,153,0.0,0.0,68,0.00,CLR,,0.16,WeatherDisplay:10.37,2013-07-26 14:04:00,
2013-07-26 10:09:00,65.8,50.2,26.95,West,259,2.3,0.0,57,0.00,CLR,,0.16,WeatherDisplay:10.37,2013-07-26 14:09:00,
2013-07-26 10:14:00,66.0,48.9,26.95,WNW,301,3.1,0.0,54,0.00,CLR,,0.16,WeatherDisplay:10.37,2013-07-26 14:14:00,
2013-07-26 10:19:00,65.7,46.0,26.95,North,10,0.0,0.0,49,0.00,CLR,,0.16,WeatherDisplay:10.37,2013-07-26 14:19:00,
2013-07-26 10:24:00,65.7,44.9,26.95,North,10,3.5,0.0,47,0.00,CLR,,0.16,WeatherDisplay:10.37,2013-07-26 14:24:00,
2013-07-26 10:29:00,65.8,44.5,26.95,North,1,0.0,0.0,46,0.00,CLR,,0.16,WeatherDisplay:10.37,2013-07-26 14:29:00,
2013-07-26 10:34:00,65.8,43.9,26.95,WNW,303,2.3,2.3,45,0.00,CLR,,0.16,WeatherDisplay:10.37,2013-07-26 14:34:00,
2013-07-26 10:39:00,65.8,43.9,26.95,WNW,296,3.5,0.0,45,0.00,CLR,,0.16,WeatherDisplay:10.37,2013-07-26 14:39:00,
2013-07-26 10:44:00,66.2,44.2,26.95,NW,320,0.0,0.0,45,0.00,CLR,,0.16,WeatherDisplay:10.37,2013-07-26 14:44:00,
2013-07-26 10:49:00,66.4,44.4,26.95,WNW,292,2.7,2.7,45,0.00,CLR,,0.16,WeatherDisplay:10.37,2013-07-26 14:49:00,
2013-07-26 10:54:00,66.4,43.8,26.95,NNE,17,4.6,4.6,44,0.00,CLR,,0.16,WeatherDisplay:10.37,2013-07-26 14:54:00,
2013-07-26 10:59:00,66.2,43.0,26.95,WSW,246,3.5,0.0,43,0.00,CLR,,0.16,WeatherDisplay:10.37,2013-07-26 14:59:00,
2013-07-26 11:04:00,66.2,43.0,26.95,SW,225,3.5,0.0,43,0.00,CLR,,0.16,WeatherDisplay:10.37,2013-07-26 15:04:00,
2013-07-26 11:09:00,65.8,42.1,26.95,WSW,244,3.5,3.5,42,0.00,CLR,,0.16,WeatherDisplay:10.37,2013-07-26 15:09:00,
2013-07-26 11:14:00,66.2,43.0,26.95,WNW,301,3.5,0.0,43,0.00,CLR,,0.16,WeatherDisplay:10.37,2013-07-26 15:14:00,
2013-07-26 11:19:00,66.2,43.0,26.95,WSW,241,0.0,0.0,43,0.00,CLR,,0.16,WeatherDisplay:10.37,2013-07-26 15:19:00,
2013-07-26 11:24:00,66.4,43.2,26.95,WSW,252,2.7,0.0,43,0.00,CLR,,0.16,WeatherDisplay:10.37,2013-07-26 15:24:00,
2013-07-26 11:29:00,66.4,43.2,26.95,North,3,0.0,0.0,43,0.00,CLR,,0.16,WeatherDisplay:10.37,2013-07-26 15:29:00,
2013-07-26 11:34:00,66.6,44.0,26.95,North,353,4.6,0.0,44,0.00,CLR,,0.16,WeatherDisplay:10.37,2013-07-26 15:34:00,
2013-07-26 11:39:00,66.7,44.1,26.95,WNW,299,2.3,0.0,44,0.00,CLR,,0.16,WeatherDisplay:10.37,2013-07-26 15:39:00,
2013-07-26 11:44:00,66.7,44.1,26.95,West,265,2.3,0.0,44,0.00,CLR,,0.16,WeatherDisplay:10.37,2013-07-26 15:44:00,
2013-07-26 11:49:00,67.1,43.8,26.95,NNW,329,0.0,0.0,43,0.00,CLR,,0.16,WeatherDisplay:10.37,2013-07-26 15:49:00,
2013-07-26 11:54:00,67.3,44.0,26.95,WNW,303,3.5,0.0,43,0.00,CLR,,0.16,WeatherDisplay:10.37,2013-07-26 15:54:00,
2013-07-26 11:59:00,67.1,40.6,26.95,West,281,0.0,0.0,38,0.00,CLR,,0.16,WeatherDisplay:10.37,2013-07-26 15:59:00,
2013-07-26 12:04:00,67.5,43.6,26.95,WNW,283,5.8,0.0,42,0.00,CLR,,0.16,WeatherDisplay:10.37,2013-07-26 16:04:00,
2013-07-26 12:09:00,67.5,41.6,26.95,SW,236,0.0,0.0,39,0.00,CLR,,0.16,WeatherDisplay:10.37,2013-07-26 16:09:00,
2013-07-26 12:14:00,67.6,41.8,26.95,SSW,213,3.5,0.0,39,0.00,CLR,,0.16,WeatherDisplay:10.37,2013-07-26 16:14:00,
2013-07-26 12:19:00,67.5,40.3,26.95,WNW,303,2.3,0.0,37,0.00,CLR,,0.16,WeatherDisplay:10.37,2013-07-26 16:19:00,
2013-07-26 12:24:00,67.8,43.2,26.95,NNE,19,0.0,0.0,41,0.00,CLR,,0.16,WeatherDisplay:10.37,2013-07-26 16:24:00,
2013-07-26 12:29:00,68.0,43.4,26.95,NNE,19,0.0,0.0,41,0.00,CLR,,0.16,WeatherDisplay:10.37,2013-07-26 16:29:00,
2013-07-26 12:34:00,67.8,41.9,26.95,NNE,18,0.0,0.0,39,0.00,CLR,,0.16,WeatherDisplay:10.37,2013-07-26 16:34:00,
2013-07-26 12:39:00,68.0,42.8,26.95,SW,220,0.0,0.0,40,0.00,CLR,,0.16,WeatherDisplay:10.37,2013-07-26 16:39:00,
2013-07-26 12:44:00,68.0,41.4,26.95,West,266,3.5,0.0,38,0.00,CLR,,0.16,WeatherDisplay:10.37,2013-07-26 16:44:00,
2013-07-26 12:49:00,68.2,43.6,26.95,NW,308,0.0,0.0,41,0.00,CLR,,0.16,WeatherDisplay:10.37,2013-07-26 16:49:00,
2013-07-26 12:54:00,68.2,41.6,26.95,WNW,283,3.5,3.5,38,0.00,CLR,,0.16,WeatherDisplay:10.37,2013-07-26 16:54:00,
2013-07-26 12:59:00,68.4,41.8,26.95,NW,323,2.3,0.0,38,0.00,CLR,,0.16,WeatherDisplay:10.37,2013-07-26 16:59:00,
2013-07-26 13:04:00,68.5,41.9,26.95,WNW,302,0.0,0.0,38,0.00,CLR,,0.16,WeatherDisplay:10.37,2013-07-26 17:04:00,
2013-07-26 13:09:00,69.1,41.0,26.95,West,269,2.3,0.0,36,0.00,CLR,,0.16,WeatherDisplay:10.37,2013-07-26 17:09:00,
2013-07-26 13:14:00,69.4,39.8,26.95,WNW,289,2.3,0.0,34,0.00,CLR,,0.16,WeatherDisplay:10.37,2013-07-26 17:14:00,
2013-07-26 13:19:00,70.0,40.3,26.95,WNW,295,2.3,0.0,34,0.00,CLR,,0.16,WeatherDisplay:10.37,2013-07-26 17:19:00,
2013-07-26 13:24:00,69.8,39.4,26.95,North,8,2.3,0.0,33,0.00,CLR,,0.16,WeatherDisplay:10.37,2013-07-26 17:24:00,
2013-07-26 13:29:00,70.2,39.7,26.95,North,1,3.5,0.0,33,0.00,CLR,,0.16,WeatherDisplay:10.37,2013-07-26 17:29:00,
2013-07-26 13:34:00,70.0,39.5,26.95,WSW,245,3.5,0.0,33,0.00,CLR,,0.16,WeatherDisplay:10.37,2013-07-26 17:34:00,
2013-07-26 13:39:00,70.2,39.7,26.95,WNW,291,2.3,0.0,33,0.00,CLR,,0.16,WeatherDisplay:10.37,2013-07-26 17:39:00,
2013-07-26 13:44:00,70.2,39.7,26.95,WSW,239,3.5,3.5,33,0.00,CLR,,0.16,WeatherDisplay:10.37,2013-07-26 17:44:00,
2013-07-26 13:49:00,70.0,39.5,26.95,NW,304,3.5,0.0,33,0.00,CLR,,0.16,WeatherDisplay:10.37,2013-07-26 17:49:00,
2013-07-26 13:54:00,70.2,40.5,26.95,West,259,3.1,0.0,34,0.00,CLR,,0.16,WeatherDisplay:10.37,2013-07-26 17:54:00,
2013-07-26 13:59:00,70.5,40.8,26.95,WNW,288,0.0,0.0,34,0.00,CLR,,0.16,WeatherDisplay:10.37,2013-07-26 17:59:00,
2013-07-26 14:04:00,70.5,40.0,26.95,North,8,0.0,0.0,33,0.00,CLR,,0.16,WeatherDisplay:10.37,2013-07-26 18:04:00,
2013-07-26 14:09:00,70.5,40.0,26.95,NNW,341,4.0,4.0,33,0.00,CLR,,0.16,WeatherDisplay:10.37,2013-07-26 18:09:00,
2013-07-26 14:14:00,70.2,39.7,26.95,West,259,4.6,4.6,33,0.00,CLR,,0.16,WeatherDisplay:10.37,2013-07-26 18:14:00,
2013-07-26 14:19:00,70.2,39.7,26.95,West,274,3.5,3.5,33,0.00,CLR,,0.16,WeatherDisplay:10.37,2013-07-26 18:19:00,
2013-07-26 14:24:00,70.0,39.5,26.95,WNW,287,3.5,3.6,33,0.00,CLR,,0.16,WeatherDisplay:10.37,2013-07-26 18:24:00,
2013-07-26 14:29:00,69.8,40.2,26.95,NNW,333,5.8,5.8,34,0.00,CLR,,0.16,WeatherDisplay:10.37,2013-07-26 18:29:00,
2013-07-26 14:34:00,69.8,40.9,26.95,WNW,300,3.5,3.5,35,0.00,CLR,,0.16,WeatherDisplay:10.37,2013-07-26 18:34:00,
2013-07-26 14:39:00,70.0,41.1,26.95,WSW,255,5.8,5.8,35,0.00,CLR,,0.16,WeatherDisplay:10.37,2013-07-26 18:39:00,
2013-07-26 14:44:00,70.2,40.5,26.95,NW,306,3.5,0.0,34,0.00,CLR,,0.16,WeatherDisplay:10.37,2013-07-26 18:44:00,
2013-07-26 14:49:00,69.8,40.2,26.95,WNW,292,5.8,5.8,34,0.00,CLR,,0.16,WeatherDisplay:10.37,2013-07-26 18:49:00,
2013-07-26 14:54:00,69.4,40.6,26.95,North,6,4.6,4.6,35,0.00,CLR,,0.16,WeatherDisplay:10.37,2013-07-26 18:54:00,
2013-07-26 14:59:00,69.3,42.6,26.95,WNW,297,2.3,0.0,38,0.00,CLR,,0.16,WeatherDisplay:10.37,2013-07-26 18:59:00,
2013-07-26 15:04:00,68.7,44.1,26.95,WSW,256,2.3,0.0,41,0.00,CLR,,0.16,WeatherDisplay:10.37,2013-07-26 19:04:00,
2013-07-26 15:09:00,68.4,44.4,26.95,North,0,3.5,0.0,42,0.00,CLR,,0.16,WeatherDisplay:10.37,2013-07-26 19:09:00,
2013-07-26 15:14:00,68.4,45.6,26.95,North,11,2.7,0.0,44,0.00,CLR,,0.16,WeatherDisplay:10.37,2013-07-26 19:14:00,
2013-07-26 15:19:00,68.5,46.9,26.95,North,11,3.5,0.0,46,0.00,CLR,,0.16,WeatherDisplay:10.37,2013-07-26 19:19:00,
2013-07-26 15:24:00,68.4,45.6,26.95,North,11,0.0,0.0,44,0.00,CLR,,0.16,WeatherDisplay:10.37,2013-07-26 19:24:00,
2013-07-26 15:29:00,68.4,45.6,26.95,West,280,0.0,0.0,44,0.00,CLR,,0.16,WeatherDisplay:10.37,2013-07-26 19:29:00,
2013-07-26 15:34:00,68.2,45.4,26.95,West,280,2.3,0.0,44,0.00,CLR,,0.16,WeatherDisplay:10.37,2013-07-26 19:34:00,
2013-07-26 15:39:00,68.2,45.4,26.95,West,280,0.0,0.0,44,0.00,CLR,,0.16,WeatherDisplay:10.37,2013-07-26 19:39:00,
2013-07-26 15:44:00,68.2,45.4,26.95,NNE,28,3.5,0.0,44,0.00,CLR,,0.16,WeatherDisplay:10.37,2013-07-26 19:44:00,
2013-07-26 15:49:00,68.0,44.0,26.95,West,274,3.5,0.0,42,0.00,CLR,,0.16,WeatherDisplay:10.37,2013-07-26 19:49:00,
2013-07-26 15:54:00,68.2,44.8,26.95,West,274,2.3,0.0,43,0.00,CLR,,0.16,WeatherDisplay:10.37,2013-07-26 19:54:00,
2013-07-26 15:59:00,68.2,44.2,26.95,North,353,3.5,0.0,42,0.00,CLR,,0.16,WeatherDisplay:10.37,2013-07-26 19:59:00,
2013-07-26 16:04:00,68.4,44.4,26.95,West,270,2.3,0.0,42,0.00,CLR,,0.16,WeatherDisplay:10.37,2013-07-26 20:04:00,
2013-07-26 16:09:00,68.5,44.5,26.95,NW,318,4.6,0.0,42,0.00,CLR,,0.16,WeatherDisplay:10.37,2013-07-26 20:09:00,
2013-07-26 16:14:00,68.5,43.2,26.95,NNW,333,0.0,0.0,40,0.00,CLR,,0.16,WeatherDisplay:10.37,2013-07-26 20:14:00,
2013-07-26 16:19:00,68.5,43.2,26.95,NNW,332,0.0,0.0,40,0.00,CLR,,0.16,WeatherDisplay:10.37,2013-07-26 20:19:00,
2013-07-26 16:24:00,68.7,44.1,26.95,NNW,332,0.0,0.0,41,0.00,CLR,,0.16,WeatherDisplay:10.37,2013-07-26 20:24:00,
2013-07-26 16:29:00,68.7,44.7,26.95,NNW,342,2.3,2.3,42,0.00,CLR,,0.16,WeatherDisplay:10.37,2013-07-26 20:29:00,
2013-07-26 16:34:00,68.4,44.4,26.95,WNW,288,2.3,0.0,42,0.00,CLR,,0.16,WeatherDisplay:10.37,2013-07-26 20:34:00,
2013-07-26 16:39:00,68.2,44.2,26.95,North,7,3.5,0.0,42,0.00,CLR,,0.16,WeatherDisplay:10.37,2013-07-26 20:39:00,
2013-07-26 16:44:00,68.0,44.7,26.95,NNE,16,2.3,0.0,43,0.00,CLR,,0.16,WeatherDisplay:10.37,2013-07-26 20:44:00,
2013-07-26 16:49:00,67.6,44.9,26.95,NNE,16,0.0,0.0,44,0.00,CLR,,0.16,WeatherDisplay:10.37,2013-07-26 20:49:00,
2013-07-26 16:54:00,67.5,45.4,26.95,West,267,3.5,3.5,45,0.00,CLR,,0.16,WeatherDisplay:10.37,2013-07-26 20:54:00,
2013-07-26 16:59:00,67.5,45.4,26.95,North,357,0.0,0.0,45,0.00,CLR,,0.16,WeatherDisplay:10.37,2013-07-26 20:59:00,
2013-07-26 17:04:00,67.6,45.5,26.95,North,357,0.0,0.0,45,0.00,CLR,,0.16,WeatherDisplay:10.37,2013-07-26 21:04:00,
2013-07-26 17:09:00,67.8,46.3,26.95,WNW,302,2.3,0.0,46,0.00,CLR,,0.16,WeatherDisplay:10.37,2013-07-26 21:09:00,
2013-07-26 17:14:00,68.0,46.4,26.95,WNW,301,0.0,0.0,46,0.00,CLR,,0.16,WeatherDisplay:10.37,2013-07-26 21:14:00,
2013-07-26 17:19:00,68.0,47.0,26.95,North,357,0.0,0.0,47,0.00,CLR,,0.16,WeatherDisplay:10.37,2013-07-26 21:19:00,
2013-07-26 17:24:00,68.0,47.0,26.95,North,357,0.0,0.0,47,0.00,CLR,,0.16,WeatherDisplay:10.37,2013-07-26 21:24:00,
2013-07-26 17:29:00,68.2,47.7,26.95,North,357,0.0,0.0,48,0.00,CLR,,0.16,WeatherDisplay:10.37,2013-07-26 21:29:00,
2013-07-26 17:34:00,68.2,47.7,26.95,North,357,0.0,0.0,48,0.00,CLR,,0.16,WeatherDisplay:10.37,2013-07-26 21:34:00,
2013-07-26 17:39:00,68.4,47.9,26.95,North,357,0.0,0.0,48,0.00,CLR,,0.16,WeatherDisplay:10.37,2013-07-26 21:39:00,
2013-07-26 17:44:00,68.5,48.1,26.95,North,357,0.0,0.0,48,0.00,CLR,,0.16,WeatherDisplay:10.37,2013-07-26 21:44:00,
2013-07-26 17:49:00,68.5,48.1,26.95,North,357,0.0,0.0,48,0.00,CLR,,0.16,WeatherDisplay:10.37,2013-07-26 21:49:00,
2013-07-26 17:54:00,68.5,48.1,26.95,North,357,0.0,0.0,48,0.00,CLR,,0.16,WeatherDisplay:10.37,2013-07-26 21:54:00,
2013-07-26 17:59:00,68.7,48.2,26.95,North,357,0.0,0.0,48,0.00,CLR,,0.16,WeatherDisplay:10.37,2013-07-26 21:59:00,
2013-07-26 18:04:00,68.7,48.2,26.95,North,357,0.0,0.0,48,0.00,CLR,,0.16,WeatherDisplay:10.37,2013-07-26 22:04:00,
2013-07-26 18:09:00,68.7,48.2,26.95,North,357,0.0,0.0,48,0.00,CLR,,0.16,WeatherDisplay:10.37,2013-07-26 22:09:00,
2013-07-26 18:14:00,68.7,48.2,26.95,North,357,0.0,0.0,48,0.00,CLR,,0.16,WeatherDisplay:10.37,2013-07-26 22:14:00,
2013-07-26 18:19:00,68.7,48.2,26.95,North,357,0.0,0.0,48,0.00,CLR,,0.16,WeatherDisplay:10.37,2013-07-26 22:19:00,
2013-07-26 18:24:00,68.7,48.2,26.95,North,357,0.0,0.0,48,0.00,CLR,,0.16,WeatherDisplay:10.37,2013-07-26 22:24:00,
2013-07-26 18:29:00,68.7,48.8,26.95,North,357,0.0,0.0,49,0.00,CLR,,0.16,WeatherDisplay:10.37,2013-07-26 22:29:00,
2013-07-26 18:34:00,68.7,48.8,26.95,North,357,0.0,0.0,49,0.00,CLR,,0.16,WeatherDisplay:10.37,2013-07-26 22:34:00,
2013-07-26 18:39:00,68.7,48.8,26.95,North,357,0.0,0.0,49,0.00,CLR,,0.16,WeatherDisplay:10.37,2013-07-26 22:39:00,
2013-07-26 18:44:00,68.7,48.8,26.95,North,357,0.0,0.0,49,0.00,CLR,,0.16,WeatherDisplay:10.37,2013-07-26 22:44:00,
2013-07-26 18:49:00,68.7,48.8,26.95,North,357,0.0,0.0,49,0.04,RA,,0.20,WeatherDisplay:10.37,2013-07-26 22:49:00,
2013-07-26 18:54:00,68.5,49.2,26.95,North,357,0.0,0.0,50,0.04,RA,,0.20,WeatherDisplay:10.37,2013-07-26 22:54:00,
2013-07-26 18:59:00,68.7,49.3,26.95,North,357,0.0,0.0,50,0.04,CLR,,0.20,WeatherDisplay:10.37,2013-07-26 22:59:00,
2013-07-26 19:04:00,68.7,49.3,26.95,North,357,0.0,0.0,50,0.04,CLR,,0.20,WeatherDisplay:10.37,2013-07-26 23:04:00,
2013-07-26 19:09:00,68.7,49.3,26.95,North,357,0.0,0.0,50,0.04,CLR,,0.20,WeatherDisplay:10.37,2013-07-26 23:09:00,
2013-07-26 19:14:00,68.9,50.0,26.95,North,357,0.0,0.0,51,0.04,CLR,,0.20,WeatherDisplay:10.37,2013-07-26 23:14:00,
2013-07-26 19:19:00,68.9,50.0,26.95,North,357,0.0,0.0,51,0.04,CLR,,0.20,WeatherDisplay:10.37,2013-07-26 23:19:00,
2013-07-26 19:24:00,68.9,50.0,26.95,North,357,0.0,0.0,51,0.04,CLR,,0.20,WeatherDisplay:10.37,2013-07-26 23:24:00,
2013-07-26 19:29:00,68.9,50.0,26.95,North,357,0.0,0.0,51,0.04,CLR,,0.20,WeatherDisplay:10.37,2013-07-26 23:29:00,
2013-07-26 19:34:00,68.9,50.0,26.95,SW,224,0.0,0.0,51,0.04,CLR,,0.20,WeatherDisplay:10.37,2013-07-26 23:34:00,
2013-07-26 19:39:00,68.9,50.0,26.95,SW,224,0.0,0.0,51,0.04,CLR,,0.20,WeatherDisplay:10.37,2013-07-26 23:39:00,
2013-07-26 19:44:00,68.9,50.0,26.95,SW,224,0.0,0.0,51,0.04,CLR,,0.20,WeatherDisplay:10.37,2013-07-26 23:44:00,
2013-07-26 19:49:00,69.1,50.2,26.95,SW,224,0.0,0.0,51,0.00,CLR,,0.20,WeatherDisplay:10.37,2013-07-26 23:49:00,
2013-07-26 19:54:00,69.1,50.7,26.95,SW,224,0.0,0.0,52,0.00,CLR,,0.20,WeatherDisplay:10.37,2013-07-26 23:54:00,
2013-07-26 19:59:00,69.1,50.7,26.95,SW,224,0.0,0.0,52,0.00,CLR,,0.20,WeatherDisplay:10.37,2013-07-26 23:59:00,
2013-07-26 20:04:00,69.1,50.7,26.95,SW,224,0.0,0.0,52,0.00,CLR,,0.20,WeatherDisplay:10.37,2013-07-27 00:04:00,
2013-07-26 20:09:00,68.9,50.5,26.95,SW,224,0.0,0.0,52,0.00,CLR,,0.20,WeatherDisplay:10.37,2013-07-27 00:09:00,
2013-07-26 20:14:00,68.9,50.5,26.95,SW,224,0.0,0.0,52,0.00,CLR,,0.20,WeatherDisplay:10.37,2013-07-27 00:14:00,
2013-07-26 20:19:00,68.7,50.4,26.95,SW,224,0.0,0.0,52,0.00,CLR,,0.20,WeatherDisplay:10.37,2013-07-27 00:19:00,
2013-07-26 20:24:00,68.7,50.4,26.95,SW,225,0.0,0.0,52,0.00,CLR,,0.20,WeatherDisplay:10.37,2013-07-27 00:24:00,
2013-07-26 20:29:00,68.5,50.2,26.95,SW,224,0.0,0.0,52,0.00,CLR,,0.20,WeatherDisplay:10.37,2013-07-27 00:29:00,
2013-07-26 20:34:00,68.5,50.2,26.95,SW,224,0.0,0.0,52,0.00,CLR,,0.20,WeatherDisplay:10.37,2013-07-27 00:34:00,
2013-07-26 20:39:00,68.4,50.0,26.95,SW,224,0.0,0.0,52,0.00,CLR,,0.20,WeatherDisplay:10.37,2013-07-27 00:39:00,
2013-07-26 20:44:00,68.4,50.0,26.95,SW,224,0.0,0.0,52,0.00,CLR,,0.20,WeatherDisplay:10.37,2013-07-27 00:44:00,
2013-07-26 20:49:00,68.7,50.9,26.95,SW,224,0.0,0.0,53,0.00,CLR,,0.20,WeatherDisplay:10.37,2013-07-27 00:49:00,
2013-07-26 20:54:00,68.7,50.9,26.95,SW,224,0.0,0.0,53,0.00,CLR,,0.20,WeatherDisplay:10.37,2013-07-27 00:54:00,
2013-07-26 20:59:00,68.5,50.7,26.95,SW,225,0.0,0.0,53,0.00,CLR,,0.20,WeatherDisplay:10.37,2013-07-27 00:59:00,
2013-07-26 21:04:00,68.4,50.6,26.95,SW,225,0.0,0.0,53,0.00,CLR,,0.20,WeatherDisplay:10.37,2013-07-27 01:04:00,
2013-07-26 21:09:00,68.2,50.4,26.95,SW,225,0.0,0.0,53,0.00,CLR,,0.20,WeatherDisplay:10.37,2013-07-27 01:09:00,
2013-07-26 21:14:00,68.0,50.2,26.95,SW,225,0.0,0.0,53,0.00,CLR,,0.20,WeatherDisplay:10.37,2013-07-27 01:14:00,
2013-07-26 21:19:00,67.8,50.6,26.95,SW,225,0.0,0.0,54,0.00,CLR,,0.20,WeatherDisplay:10.37,2013-07-27 01:19:00,
2013-07-26 21:24:00,67.8,50.6,26.95,SW,225,0.0,0.0,54,0.00,CLR,,0.20,WeatherDisplay:10.37,2013-07-27 01:24:00,
2013-07-26 21:29:00,67.6,50.4,26.95,SW,225,0.0,0.0,54,0.00,CLR,,0.20,WeatherDisplay:10.37,2013-07-27 01:29:00,
2013-07-26 21:34:00,67.6,50.4,26.95,SW,225,0.0,0.0,54,0.00,CLR,,0.20,WeatherDisplay:10.37,2013-07-27 01:34:00,
2013-07-26 21:39:00,67.5,50.2,26.95,SW,225,0.0,0.0,54,0.00,CLR,,0.20,WeatherDisplay:10.37,2013-07-27 01:39:00,
2013-07-26 21:44:00,67.5,50.2,26.95,SW,225,0.0,0.0,54,0.00,CLR,,0.20,WeatherDisplay:10.37,2013-07-27 01:44:00,
2013-07-26 21:49:00,67.5,50.2,26.95,SW,225,0.0,0.0,54,0.00,CLR,,0.20,WeatherDisplay:10.37,2013-07-27 01:49:00,
2013-07-26 21:54:00,67.3,50.1,26.95,SW,225,0.0,0.0,54,0.00,CLR,,0.20,WeatherDisplay:10.37,2013-07-27 01:54:00,
2013-07-26 21:59:00,67.1,49.9,26.95,SW,225,0.0,0.0,54,0.00,CLR,,0.20,WeatherDisplay:10.37,2013-07-27 01:59:00,
2013-07-26 22:04:00,67.1,49.9,26.95,SW,225,0.0,0.0,54,0.00,CLR,,0.20,WeatherDisplay:10.37,2013-07-27 02:04:00,
2013-07-26 22:09:00,67.1,49.9,26.95,SW,225,0.0,0.0,54,0.00,CLR,,0.20,WeatherDisplay:10.37,2013-07-27 02:09:00,
2013-07-26 22:14:00,67.1,50.4,26.95,SW,225,0.0,0.0,55,0.00,CLR,,0.20,WeatherDisplay:10.37,2013-07-27 02:14:00,
2013-07-26 22:19:00,66.9,50.2,26.95,SW,225,0.0,0.0,55,0.00,CLR,,0.20,WeatherDisplay:10.37,2013-07-27 02:19:00,
2013-07-26 22:24:00,66.9,49.7,26.95,SW,225,0.0,0.0,54,0.00,CLR,,0.20,WeatherDisplay:10.37,2013-07-27 02:24:00,
2013-07-26 22:29:00,66.7,49.6,26.95,SW,225,0.0,0.0,54,0.00,CLR,,0.20,WeatherDisplay:10.37,2013-07-27 02:29:00,
2013-07-26 22:34:00,66.7,50.1,26.95,SW,225,0.0,0.0,55,0.00,CLR,,0.20,WeatherDisplay:10.37,2013-07-27 02:34:00,
2013-07-26 22:39:00,66.7,50.1,26.95,SW,225,0.0,0.0,55,0.00,CLR,,0.20,WeatherDisplay:10.37,2013-07-27 02:39:00,
2013-07-26 22:44:00,66.7,50.1,26.95,SW,225,0.0,0.0,55,0.00,CLR,,0.20,WeatherDisplay:10.37,2013-07-27 02:44:00,
2013-07-26 22:49:00,66.6,49.4,26.95,SW,225,0.0,0.0,54,0.00,CLR,,0.20,WeatherDisplay:10.37,2013-07-27 02:49:00,
2013-07-26 22:54:00,66.6,49.9,26.95,SW,225,0.0,0.0,55,0.00,CLR,,0.20,WeatherDisplay:10.37,2013-07-27 02:54:00,
2013-07-26 22:59:00,66.4,49.7,26.95,SW,225,0.0,0.0,55,0.00,CLR,,0.20,WeatherDisplay:10.37,2013-07-27 02:59:00,
2013-07-26 23:04:00,66.4,49.7,26.95,SW,225,0.0,0.0,55,0.00,CLR,,0.20,WeatherDisplay:10.37,2013-07-27 03:04:00,
2013-07-26 23:09:00,66.2,49.6,26.95,SW,225,0.0,0.0,55,0.00,CLR,,0.20,WeatherDisplay:10.37,2013-07-27 03:09:00,
2013-07-26 23:14:00,66.2,49.6,26.95,SW,225,0.0,0.0,55,0.00,CLR,,0.20,WeatherDisplay:10.37,2013-07-27 03:14:00,
2013-07-26 23:19:00,66.2,50.0,26.95,SW,225,0.0,0.0,56,0.00,CLR,,0.20,WeatherDisplay:10.37,2013-07-27 03:19:00,
2013-07-26 23:24:00,66.2,50.0,26.95,SW,225,0.0,0.0,56,0.00,CLR,,0.20,WeatherDisplay:10.37,2013-07-27 03:24:00,
2013-07-26 23:29:00,66.0,49.9,26.95,SW,225,0.0,0.0,56,0.00,CLR,,0.20,WeatherDisplay:10.37,2013-07-27 03:29:00,
2013-07-26 23:34:00,65.8,49.7,26.95,SW,225,0.0,0.0,56,0.00,CLR,,0.20,WeatherDisplay:10.37,2013-07-27 03:34:00,
2013-07-26 23:39:00,65.8,49.7,26.95,SW,225,0.0,0.0,56,0.00,CLR,,0.20,WeatherDisplay:10.37,2013-07-27 03:39:00,
2013-07-26 23:44:00,65.8,49.7,26.95,SW,225,0.0,0.0,56,0.00,CLR,,0.20,WeatherDisplay:10.37,2013-07-27 03:44:00,
2013-07-26 23:49:00,65.8,50.2,26.95,SW,225,0.0,0.0,57,0.00,CLR,,0.20,WeatherDisplay:10.37,2013-07-27 03:49:00,
2013-07-26 23:54:00,66.0,50.8,26.95,SW,225,0.0,0.0,58,0.00,CLR,,0.20,WeatherDisplay:10.37,2013-07-27 03:54:00,
2013-07-26 23:59:00,66.0,50.8,26.95,SW,225,0.0,0.0,58,0.00,CLR,,0.20,WeatherDisplay:10.37,2013-07-27 03:59:00,